Regional Weather Roundup
Issued by NWS

Home | Current Version | Previous Version | Graphics & Text | Print | Product List | Glossary On
Versions: 1 2 3 4 5 6 7 8 9 10 11 12 13 14 15 16 17 18 19 20 21 22 23 24 25 26 27 28 29 30 31 32 33 34 35 36 37 38 39 40 41 42 43 44 45 46 47 48 49 50
000
ASUS45 KABQ 290301
RWRNM
NEW MEXICO REGIONAL WEATHER ROUNDUP
NATIONAL WEATHER SERVICE ALBUQUERQUE NM
900 PM MDT THU JUL 28 2016

NOTE: "FAIR" MEANS FEW OR NO CLOUDS BELOW 12,000 FEET AGL WITH NO
       SIGNIFICANT WEATHER OR OBSTRUCTIONS TO VISION.

      THIS PRODUCT IS RELEASED AS TWO VERSIONS.  ONE VERSION NEAR
      THE TOP OF THE HOUR CONTAINING PRELIMINARY DATA FROM ALBUQUERQUE
      AND OTHER STATIONS.  A FINAL VERSION WITH ADDITIONAL DATA IS
      ISSUED ABOUT 10 MINUTES AFTER THE HOUR.

NMZ501-503-504-510>518-290400-
NORTHWEST PLATEAU/NORTHCENTRAL MOUNTAINS

CITY           SKY/WX    TMP DP  RH WIND       PRES   REMARKS
FARMINGTON     FAIR      88  32  13 N3        30.06S
LOS ALAMOS     FAIR      78  35  21 W12       30.27F
SANTA FE       FAIR      79  36  21 NW6       30.18F
TAOS           FAIR      68  34  28 E10       30.28R
ANGEL FIRE     FAIR      59  40  49 W6        30.40R

$$
NMZ402-403-502-505>509-290400-
WESTCENTRAL MOUNTAINS/SOUTHWEST MOUNTAINS

CITY           SKY/WX    TMP DP  RH WIND       PRES   REMARKS
GALLUP         FAIR      78  37  22 S9        30.21R
GRANTS         FAIR      74  35  24 SW7       30.23R
SILVER CITY    FAIR      82  55  39 SE6       30.14R

$$
NMZ407-409-411-412-290400-
SOUTHERN DESERTS

CITY           SKY/WX    TMP DP  RH WIND       PRES   REMARKS
LORDSBURG      FAIR      86  46  25 SE5       30.02R
DEMING         FAIR      88  47  24 SE3       30.02
LAS CRUCES     FAIR      87  46  24 SE5       30.06R
ALAMOGORDO     FAIR      90  45  20 E12       30.03R
T OR C         FAIR      90  46  21 S6        30.06R

$$
NMZ519>523-290400-
CENTRAL VALLEYS/CENTRAL HIGHLANDS

CITY           SKY/WX    TMP DP  RH WIND       PRES   REMARKS
ALBUQUERQUE    FAIR      88  44  21 S3        30.12R
DOUBLE EAGLE   MOCLDY    81  46  30 CALM      30.18R
MORIARTY ARPT  FAIR      75  49  39 S8        30.21S
CLINES CORNERS FAIR      70  48  45 S12       30.28S
BELEN          FAIR      86  40  20 SE9       30.10R
SOCORRO        FAIR      86  47  25 S5        30.07S

$$
NMZ524>526-539-540-290400-
SOUTHCENTRAL MOUNTAINS

CITY           SKY/WX    TMP DP  RH WIND       PRES   REMARKS
RUIDOSO          N/A     73  45  35 S5        30.30S

$$
NMZ527>531-290400-
NORTHEAST HIGHLANDS/NORTHEAST PLAINS

CITY           SKY/WX    TMP DP  RH WIND       PRES   REMARKS
LAS VEGAS      FAIR      71  42  35 SE14      30.25R
RATON          MOCLDY    72  51  47 NE6       30.22R
CLAYTON        FAIR      80  44  27 W9        30.08S

$$
NMZ532>537-290400-
EASTCENTRAL PLAINS

CITY           SKY/WX    TMP DP  RH WIND       PRES   REMARKS
TUCUMCARI      FAIR      82  52  35 SE5       30.04S
CANNON AFB     NOT AVBL
CLOVIS AIRPORT FAIR      75  54  46 SE7       30.10R

$$
NMZ028-029-538-290400-
SOUTHEAST PLAINS

CITY           SKY/WX    TMP DP  RH WIND       PRES   REMARKS
ROSWELL        FAIR      87  56  34 S10       30.01R
ARTESIA        FAIR      88  59  37 S14       30.02R
CARLSBAD       FAIR      85  57  38 S6        29.99S
HOBBS          FAIR      82  55  39 E6        30.07R


$$



USA.gov is the U.S. government's official web portal to all federal, state and local government web resources and services.